Flag for Germany Weather past 2 weeks in Siegburg, North Rhine-Westphalia, Germany

Now
50 °F

Overcast.


Feels Like: 48 °F
Forecast: 47 / 62 °F
Wind: 5 mph from Southwest

Location: Bonn-Hangelar

Current Time: Oct 26, 2014 at 5:06:39 AM

Latest Report: Oct 26, 2014 at 4:00 AM


Visibility: 13 mi

Pressure: 30.26 "Hg

Humidity: 88%

Dew point: 46 °F

Location of SiegburgLocation

Historic Weather in Siegburg — Graph

°F

Siegburg temperature yesterday

Maximum temperature yesterday: 55 °F (at 3:00 PM)
Minimum temperature yesterday: 50 °F (at 2:00 AM)
Average temperature yesterday: 52 °F

Past Weeks' High & Low Weather Summary

 TemperatureHumidityPressure
High72 °F (Oct 18, 5:00 PM)98% (Oct 12, 10:00 PM)30.26 "Hg (Oct 12, 10:00 PM)
Low40 °F (Oct 22, 4:00 AM)52% (Oct 14, 4:00 PM)29.55 "Hg (Oct 21, 4:00 PM)
Average55 °F82%29.94 "Hg
* Reported Oct 11 5:00 AM — Oct 26 4:00 AM, Siegburg, Weather by CustomWeather, © 2014

Note: Actual official high and low records may vary slightly from our data, if they occured in-between our weather recording intervals... More about our weather records

Advertising

Siegburg weather history for previous 24 hours

 ConditionsComfort  
Time TempWeatherWind HumidityBarometerVisibility
4:00 AM
Oct 26
50 °FOvercast.5 mph88%30.26 "Hg13 mi
3:00 AM49 °FPassing clouds.5 mph91%30.25 "Hg7 mi
2:00 AM50 °FPassing clouds.5 mph92%30.25 "Hg7 mi
2:00 AM51 °FPassing clouds.5 mph91%30.24 "Hg6 mi
1:00 AM52 °FOvercast.5 mph91%30.23 "Hg8 mi
12:00 AM51 °FFog.5 mph95%30.23 "Hg4 mi
11:00 PM
Oct 25
50 °FFog.3 mph97%30.22 "Hg2 mi
10:00 PM51 °FPassing clouds.2 mph91%30.21 "Hg6 mi
9:00 PM53 °FLow clouds.3 mph95%30.19 "Hg5 mi
8:00 PM53 °FOvercast.3 mph94%30.18 "Hg7 mi
7:00 PM54 °FOvercast.5 mph94%30.16 "Hg9 mi
6:00 PM53 °FRain. Low clouds.5 mph96%30.14 "Hg5 mi
5:00 PM54 °FRain. Low clouds.5 mph97%30.13 "Hg2 mi
4:00 PM54 °FRain. Low clouds.5 mph96%30.12 "Hg3 mi
3:00 PM55 °FLow clouds.3 mph92%30.11 "Hg9 mi
2:00 PM55 °FLow clouds.5 mph92%30.11 "Hg9 mi
1:00 PM54 °FLow clouds.6 mph95%30.11 "Hg11 mi
12:00 PM53 °FFog.6 mph95%30.11 "Hg4 mi
11:00 AM53 °FFog.5 mph97%30.10 "Hg3 mi
10:00 AM52 °FFog.5 mph97%30.09 "Hg2 mi
9:00 AM51 °FFog.5 mph98%30.08 "Hg2 mi
8:00 AM51 °FLow clouds.6 mph98%30.07 "Hg2 mi
7:00 AM51 °FRain. Low clouds.6 mph97%30.05 "Hg6 mi
6:00 AM51 °FRain. Low clouds.6 mph97%30.05 "Hg5 mi
5:00 AM50 °FDrizzle. Low clouds.6 mph96%30.05 "Hg5 mi
Weather by CustomWeather, © 2014

See weather overviewHow to use our weather pages